Regional Weather Roundup
Issued by NWS

Home | Current Version | Previous Version | Graphics & Text | Print | Product List | Glossary Off
Versions: 1 2 3 4 5 6 7 8 9 10 11 12 13 14 15 16 17 18 19 20 21 22 23 24 25 26 27 28 29 30 31 32 33 34 35 36 37 38 39 40 41 42 43 44 45 46 47 48 49 50

000
ASUS43 KFSD 181702
RWRSD

WEATHER ROUNDUP FOR SOUTH DAKOTA
NATIONAL WEATHER SERVICE SIOUX FALLS SD
1200 PM CDT FRI APR 18 2014

NOTE: "FAIR" INDICATES FEW OR NO CLOUDS BELOW 12,000 FEET WITH NO
SIGNIFICANT WEATHER AND/OR OBSTRUCTIONS TO VISIBILITY.


SDZ001>005-009-010-012>017-181800-
NORTHWEST AND NORTH CENTRAL SOUTH DAKOTA

CITY           SKY/WX    TMP DP  RH WIND       PRES   REMARKS
FAITH            N/A     53  36  52 SE18      29.81F
MOBRIDGE       MOSUNNY   54  34  46 SE21G29   29.88F
$$

SDZ012>016-024>037-041>051-057-063-072>074-181800-
SOUTHWEST AND SOUTH CENTRAL SOUTH DAKOTA

CITY           SKY/WX    TMP DP  RH WIND       PRES   REMARKS
RAPID CTY ARPT PTSUNNY   62  41  46 SE14      29.77F
PIERRE         MOSUNNY   60  38  43 SE20G26   29.86F
CUSTER         PTSUNNY   62  29  28 SW10G21   29.86S
ELLSWORTH AFB  PTSUNNY   60  43  53 SE9       29.76F
PHILIP         PTSUNNY   61  41  47 SE12      29.81F
PINE RIDGE     PTSUNNY   66  41  40 S17G24    29.83F
WINNER         FAIR      66  37  34 S15G31    29.90F
$$

SDZ004>011-016>023-039-040-181800-
NORTHEAST SOUTH DAKOTA

CITY           SKY/WX    TMP DP  RH WIND       PRES   REMARKS
ABERDEEN       MOSUNNY   53  35  50 SE21G36   30.02F
WATERTOWN      MOSUNNY   47  33  58 SE20G28   30.11F
SISSETON         N/A     42  33  70 S24G30    30.18F
$$

SDZ017-020-022-023-036>040-048>070-181800-
SOUTHEAST SOUTH DAKOTA

CITY           SKY/WX    TMP DP  RH WIND       PRES   REMARKS
SIOUX FALLS    MOSUNNY   56  33  42 SE22G29   30.15F
HURON          SUNNY     58  37  45 S28G37    30.00F
CHAMBERLAIN      N/A     64  38  38 S25G36    29.93F
MITCHELL       SUNNY     60  38  43 SE28G35   30.03F
YANKTON        SUNNY     61  36  39 S24G36    30.12F
$$

ABBREVIATIONS USED IN REMARKS
   TC - TEMPERATURE IN CELSIUS
  WCI - WIND CHILL INDEX
   HX - HEAT INDEX
  VSB - VISIBILITY




USA.gov is the U.S. government's official web portal to all federal, state and local government web resources and services.